Vero Beach, FL

9:27 PM EDT on July 23, 2017 (GMT -0400)
Vero Beach Municipal

Weather History for KVRB - September, 2011

Change the Weather History Date:

Tuesday, September 6, 2011

  Actual Average Record
Temperature  
Mean Temperature 82 °F 81 °F  
Max Temperature 89 °F 89 °F 95 °F (1944)
Min Temperature 75 °F 74 °F 68 °F (1975)
Degree Days  
Heating Degree Days 0 0  
Month to date heating degree days 0 0  
Since 1 July heating degree days 0 0  
Cooling Degree Days 17 16  
Month to date cooling degree days 97 96  
Year to date cooling degree days 2650 2394  
Growing Degree Days 32 (Base 50)    
Moisture  
Dew Point 74 °F    
Average Humidity 78    
Maximum Humidity 88    
Minimum Humidity 68    
Precipitation  
Precipitation 0.40 in 0.22 in 2.02 in (1976)
Month to date precipitation 2.18 1.40  
Year to date precipitation 30.55 36.10  
Sea Level Pressure  
Sea Level Pressure 29.91 in    
Wind  
Wind Speed 9 mph (SSW)    
Max Wind Speed 24 mph    
Max Gust Speed 31 mph    
Visibility 9 miles    
Events Rain , Thunderstorm    
T = Trace of Precipitation, MM = Missing Value Source: NWS Daily Summary

Daily Weather History Graph

Daily Weather History Graph

Search for Another Location

Airport or City:

Trip Planner

Search our weather history database for the weather conditions in past years. The results will help you decide how hot, cold, wet, or windy it might be!

Date:

Astronomy

Sep. 06, 2011 Rise Set
Actual Time 7:02 AM EDT 7:37 PM EDT
Civil Twilight 6:39 AM EDT 8:00 PM EDT
Nautical Twilight 6:11 AM EDT 8:28 PM EDT
Astronomical Twilight 5:43 AM EDT 8:56 PM EDT
Moon 3:49 PM EDT (9/6) 1:39 AM EDT (9/6)
Length of Visible Light 13h 21m
Length of Day
12h 34m
Waxing Gibbous, 70% of the Moon is Illuminated
Sep 6
Waxing Gibbous
Sep 12
Full
Sep 20
Last Quarter
Sep 27
New
Oct 3
First Quarter

Hourly Weather History & Observations

Time (EDT) Temp. Heat Index Dew Point Humidity Pressure Visibility Wind Dir Wind Speed Gust Speed Precip Events Conditions
12:53 AM 81.0 °F 86.7 °F 75.0 °F 82% 29.88 in 10.0 mi South 6.9 mph - N/A   Clear
1:53 AM 80.1 °F 85.1 °F 75.0 °F 85% 29.86 in 10.0 mi South 6.9 mph - N/A   Clear
2:53 AM 80.1 °F 85.1 °F 75.0 °F 85% 29.86 in 10.0 mi South 8.1 mph - N/A   Clear
3:53 AM 80.1 °F 85.1 °F 75.0 °F 85% 29.85 in 10.0 mi South 8.1 mph - N/A   Clear
4:53 AM 80.1 °F 85.4 °F 75.9 °F 87% 29.83 in 10.0 mi South 8.1 mph - N/A   Clear
5:53 AM 80.1 °F 85.4 °F 75.9 °F 87% 29.84 in 10.0 mi South 9.2 mph - N/A   Clear
6:53 AM 80.1 °F 85.4 °F 75.9 °F 87% 29.87 in 10.0 mi South 9.2 mph - N/A   Clear
7:53 AM 81.0 °F 87.3 °F 75.9 °F 85% 29.88 in 10.0 mi South 9.2 mph - N/A   Clear
8:53 AM 84.0 °F 91.9 °F 75.0 °F 74% 29.90 in 10.0 mi South 10.4 mph - N/A   Clear
9:53 AM 86.0 °F 96.9 °F 77.0 °F 74% 29.91 in 10.0 mi SSW 13.8 mph - N/A   Clear
10:25 AM 87.8 °F 99.7 °F 77.0 °F 70% 29.92 in 10.0 mi SSW 13.8 mph - N/A   Mostly Cloudy
10:53 AM 89.1 °F 101.4 °F 77.0 °F 67% 29.92 in 10.0 mi SSW 16.1 mph 24.2 mph N/A   Scattered Clouds
12:53 PM 81.0 °F 84.4 °F 70.0 °F 69% 29.93 in - West 18.4 mph 27.6 mph N/A   Unknown
1:13 PM 78.8 °F - 71.6 °F 78% 29.93 in 2.0 mi SW 13.8 mph 27.6 mph 0.07 in Rain Light Rain
1:21 PM 78.8 °F - 71.6 °F 78% 29.93 in 10.0 mi SW 12.7 mph - 0.07 in   Unknown
1:53 PM 84.0 °F 91.2 °F 73.9 °F 72% 29.91 in 10.0 mi WSW 10.4 mph - 0.08 in   Scattered Clouds
2:53 PM 84.9 °F 91.4 °F 73.0 °F 67% 29.92 in 10.0 mi West 18.4 mph - N/A   Mostly Cloudy
3:03 PM 80.6 °F 85.4 °F 73.4 °F 79% 29.95 in 1.0 mi West 23.0 mph 31.1 mph N/A Rain Heavy Rain
3:08 PM 77.0 °F - 73.4 °F 89% 29.94 in 1.0 mi West 16.1 mph 31.1 mph 0.16 in Rain , Thunderstorm Thunderstorms and Rain
3:15 PM 75.2 °F - 71.6 °F 89% 29.94 in 1.0 mi West 15.0 mph 25.3 mph 0.30 in Rain , Thunderstorm Thunderstorms and Rain
3:24 PM 75.2 °F - 71.6 °F 89% 29.93 in 3.0 mi West 6.9 mph - 0.30 in Rain , Thunderstorm Thunderstorms and Rain
3:53 PM 78.1 °F - 72.0 °F 81% 29.91 in 10.0 mi SSW 8.1 mph - 0.32 in   Mostly Cloudy
4:53 PM 81.0 °F 85.2 °F 72.0 °F 74% 29.90 in 10.0 mi SSW 9.2 mph - 0.00 in Rain , Thunderstorm Thunderstorms and Rain
5:00 PM 80.6 °F 84.6 °F 71.6 °F 74% 29.90 in 10.0 mi SSW 9.2 mph - 0.00 in   Clear
5:53 PM 81.0 °F 85.2 °F 72.0 °F 74% 29.90 in 10.0 mi SSW 10.4 mph - 0.00 in   Clear
6:53 PM 80.6 °F 84.6 °F 71.6 °F 74% 29.90 in 10.0 mi SSW 8.1 mph - N/A   Partly Cloudy
7:53 PM 78.8 °F - 71.6 °F 78% 29.91 in 10.0 mi South 6.9 mph - N/A   Partly Cloudy
8:53 PM 79.0 °F - 72.0 °F 79% 29.92 in 10.0 mi South 4.6 mph - N/A   Partly Cloudy
9:53 PM 78.1 °F - 73.0 °F 84% 29.94 in 10.0 mi Calm Calm - N/A   Clear
10:53 PM 78.1 °F - 73.0 °F 84% 29.97 in 10.0 mi South 4.6 mph - N/A   Clear
11:53 PM 77.0 °F - 73.0 °F 88% 29.95 in 10.0 mi SSW 9.2 mph - N/A   Clear